This demonstration page uses our WeatherBlox Daily Observations layout. Learn more.

39.92423, -83.80882

Hourly Observations for June 17, 2017

Temp ( °F °C ) Dew Point ( °F °C ) Humidity (%) Winds ( mph kmh ) Pressure ( in mb ) Visibility ( mi km ) Precip ( " mm )
12:58 am 00:58 Clear 72 22.2 66 19.1 83 83 Calm 29.82 1010 10 16.0934 0 0
1:58 am 01:58 Clear 71 21.4 66 19.1 87 87 Calm 29.79 1009 10 16.0934 0 0
2:58 am 02:58 Clear 70 21.1 67 19.4 90 90 Calm 29.79 1009 10 16.0934 0 0
3:58 am 03:58 Clear 69 20.8 67 19.3 91 91 Calm 29.8 1009 10 16.0934 0 0
4:58 am 04:58 Clear 67 19.6 67 19.6 100 100 SE 5 7 29.78 1008 10 16.0934 0 0
5:58 am 05:58 Clear 67 19.3 67 19.3 100 100 Calm 29.79 1009 10 16.0934 0 0
6:58 am 06:58 Sunny 69 20.3 69 20.3 100 100 SE 3 6 29.81 1009 10 16.0934 0 0
7:58 am 07:58 Sunny 73 22.6 71 21.4 93 93 S 3 6 29.81 1009 10 16.0934 0 0.0254
8:58 am 08:58 Sunny 77 24.9 71 21.7 82 82 SW 5 7 29.82 1010 10 16.0934 0 0
9:58 am 09:58 Sunny 80 26.7 71 21.8 75 75 SSW 13 20 29.82 1010 10 16.0934 0 0
10:58 am 10:58 Partly Cloudy 82 27.6 70 21.2 68 68 SSW 15 24 29.8 1009 10 16.0934 0 0
11:58 am 11:58 Mostly Sunny 83 28.3 70 21 65 65 SSW 13 20 29.79 1009 10 16.0934 0 0
12:58 pm 12:58 Mostly Cloudy 85 29.2 67 19.7 57 57 S 13 20 29.79 1009 10 16.0934 0 0
1:58 pm 13:58 Sunny 86 29.9 67 19.2 53 53 SSW 16 26 29.78 1008 10 16.0934 0 0
2:33 pm 14:33 Sunny 86 30 66 19 52 52 SSW 15 24 29.77 1008 10 16.0934 0 0
2:58 pm 14:58 Sunny 87 30.8 66 18.9 49 49 S 14 22 29.77 1008 10 16.0934 0 0
3:01 pm 15:01 Mostly Sunny 88 31 66 19 49 49 S 13 20 29.77 1008 10 16.0934 0 0
3:58 pm 15:58 Mostly Sunny 86 29.8 66 18.9 52 52 S 15 24 29.75 1007 10 16.0934 0 0
4:58 pm 16:58 Mostly Sunny 88 31.1 67 19.6 50 50 SSW 17 28 29.75 1007 10 16.0934 0 0
5:58 pm 17:58 Mostly Sunny 87 30.8 67 19.3 50 50 S 16 26 29.74 1007 10 16.0934 0 0
6:58 pm 18:58 Mostly Sunny 86 30.2 67 19.2 52 52 S 15 24 29.73 1007 10 16.0934 0 0
7:58 pm 19:58 Mostly Cloudy 85 29.2 65 18.6 53 53 S 14 22 29.73 1007 10 16.0934 0 0
8:58 pm 20:58 Mostly Cloudy 83 28.3 66 18.9 57 57 S 13 20 29.74 1007 10 16.0934 0 0
9:58 pm 21:58 Partly Cloudy 81 27.3 65 18.5 59 59 S 10 17 29.74 1007 10 16.0934 0 0
10:58 pm 22:58 Mostly Cloudy 80 26.6 67 19.4 65 65 S 12 19 29.72 1007 10 16.0934 0 0
11:58 pm 23:58 Mostly Cloudy 79 25.9 67 19.6 68 68 S 8 13 29.75 1007 10 16.0934 0 0

Powered by AerisWeather